DM7LA-WX Weather Reports


Display with metric or nautical units.
time (UTC)temp
F
wind
direction
speed
MPH
gust
MPH
rain 1hr
in
rain 24hr
in
rain mn
in
humidity
%
barometer
mb
20260902005802 57 270 0.0 0.0 0.00 1.37 0.00 87 1014.1
20260901235802 58 225 0.0 0.0 0.00 1.37 0.33 88 1014.0
20260901225802 59 247 0.0 0.0 0.00 1.37 0.33 86 1014.4
20260901215802 59 270 0.0 0.0 0.00 1.37 0.33 87 1014.7
20260901205802 60 292 0.0 0.0 0.00 1.37 0.33 84 1014.5
20260901195801 62 270 0.0 0.0 0.00 1.37 0.33 76 1014.4
20260901185802 63 292 0.0 0.0 0.00 1.37 0.33 73 1014.2
20260901175802 64 270 0.0 0.0 0.00 1.37 0.33 72 1014.1
20260901165802 65 270 0.0 0.0 0.00 1.37 0.33 70 1013.8
20260901155802 66 247 0.0 0.0 0.00 1.37 0.33 70 1013.5
20260901145801 66 337 0.0 0.0 0.00 1.37 0.33 67 1013.4
20260901135801 66 292 0.0 0.0 0.00 1.37 0.33 67 1012.9
20260901125802 66 292 0.0 0.0 0.00 1.37 0.33 70 1012.8
20260901115802 64 292 0.0 0.0 0.00 1.37 0.33 76 1012.6
20260901105802 60 292 0.0 0.0 0.02 1.37 0.33 91 1012.3
20260901095802 60 202 0.0 0.0 0.10 1.34 0.30 91 1011.8
20260901085802 64 315 0.0 0.0 0.00 1.24 0.20 84 1011.4
20260901075802 63 247 0.0 0.0 0.15 1.24 0.20 92 1010.5
20260901065801 62 225 0.0 0.0 0.00 1.08 0.04 88 1010.3
20260901055801 61 270 0.0 0.0 0.00 1.08 0.04 87 1009.9
20260901045801 63 315 0.0 0.0 0.00 1.08 0.04 80 1009.5
20260901035801 63 270 0.0 0.0 0.00 1.08 0.04 80 1009.5
20260901025802 63 292 0.0 0.0 0.04 1.08 0.04 83 1009.0
20260901015801 63 292 0.0 0.0 0.00 1.03 0.00 81 1008.5